#timestamp,LO_Frequency,Hit,StdDev 
1593547215.2,286047002.7,N
1593547235.9,286047002.8,N
1593547255.7,286047002.4,N
1593547275.6,286047000.4,N
1593547295.4,286047000.1,N
1593547315.2,286047000.4,N
1593547335.1,286047002.7,N
1593547336.0,286047002.7,N
1593547355.8,286046999.7,N
1593547375.7,286047001.0,N
1593547395.5,286047000.0,N
1593547415.3,286047001.9,N
1593547435.2,286047002.1,N
1593547455.0,286047001.4,N
1593547455.9,286047001.4,N
1593547475.8,286047005.3,Y
1593547495.6,286047004.1,P
1593547515.5,286046999.8,N
1593547535.3,286047000.1,N
1593547555.1,286047000.0,N
1593547575.9,286047001.5,N
1593547595.7,286047001.5,N
1593547615.6,286047003.3,N
1593547635.4,286047005.8,Y
1593547655.2,286047004.0,P
1593547675.1,286047003.5,N
1593547676.0,286047003.5,P
1593547695.8,286047001.5,N
1593547715.7,286047000.1,N
1593547735.5,286047001.1,N
1593547755.3,286047002.2,N
1593547775.2,286047002.3,N
1593547795.0,286047000.2,N
1593547795.9,286047000.2,N
1593547815.8,286047001.8,N
1593547835.6,286047001.8,N
1593547855.4,286047003.7,N
1593547875.3,286047006.0,Y
1593547895.1,286047002.8,P
1593547915.8,286047000.1,N
1593547935.7,286046996.5,P
1593547955.5,286046998.2,N
1593547975.4,286046999.1,N
1593547995.2,286046998.3,N
1593548015.0,286047001.0,N
1593548015.9,286047001.0,N
1593548035.8,286046999.6,N
1593548055.6,286046996.6,N
1593548075.4,286046998.1,N
1593548095.3,286046998.7,N
1593548115.1,286046999.6,N
1593548135.9,286046999.1,N
1593548155.7,286046999.5,N
1593548175.5,286046998.2,N
1593548195.4,286046999.0,N
1593548215.2,286047002.3,N
1593548235.1,286046998.4,N
1593548236.0,286046998.4,N
1593548255.8,286046998.2,N
1593548275.6,286046999.9,N
1593548295.5,286046999.6,N
1593548315.3,286047001.2,N
1593548335.1,286047000.7,N
1593548355.9,286046997.2,N
1593548375.7,286046996.8,N
1593548395.6,286046997.9,N
1593548415.4,286046997.1,N
1593548435.2,286046995.3,N
1593548455.1,286046996.4,N
1593548456.0,286046996.4,N
1593548475.8,286046996.1,N
1593548495.7,286046993.8,Y
1593548515.5,286046994.9,P
1593548535.3,286046998.0,N
1593548555.2,286046995.5,N
1593548575.0,286046995.3,N
1593548575.9,286046995.3,Y
1593548595.8,286047000.3,P
1593548615.6,286047000.0,N
1593548635.4,286047002.6,N
1593548655.3,286046999.8,N
1593548675.1,286047002.4,N
1593548695.9,286047000.8,N
1593548715.7,286046999.9,N
1593548735.5,286047000.5,N
1593548755.4,286047000.1,N
1593548775.2,286047002.7,N
1593548795.0,286046999.7,N
1593548826.0,286047003.9,E
1593548835.9,286047002.5,N
1593548855.7,286046999.3,P
1593548875.6,286046998.3,N
1593548895.4,286046996.5,N
1593548915.3,286046999.1,N
1593548935.1,286046997.7,N
1593548936.0,286046997.7,N
1593548955.8,286046997.7,N
1593548975.7,286046997.8,N
1593548995.5,286046997.8,N
1593549015.3,286046996.7,N
1593549035.2,286046996.9,N
1593549055.0,286046999.6,N
1593549055.9,286046999.6,N
1593549075.8,286046997.6,N
1593549095.6,286046997.2,N
1593549115.4,286046997.1,N
1593549135.3,286046997.3,N
1593549155.1,286046999.1,N
1593549175.9,286046997.1,N
1593549195.7,286046999.4,N
1593549215.5,286046997.4,N
1593549235.4,286046999.6,N
1593549255.2,286046996.5,N
1593549275.0,286046997.3,N
1593549275.9,286046997.3,N
1593549295.8,286046997.3,N
1593549315.6,286046998.9,N
1593549335.5,286047001.1,N
1593549355.3,286046998.7,N
1593549375.1,286046998.6,N
1593549395.9,286046999.4,N
1593549415.7,286046996.6,Y
1593549435.6,286047000.1,P
1593549455.4,286047002.6,N
1593549475.2,286047002.7,N
1593549495.1,286047002.3,N
1593549496.0,286047002.3,N
1593549515.8,286047002.7,N
1593549535.7,286047002.0,N
1593549555.5,286047002.1,N
1593549575.3,286047002.8,N
1593549595.2,286046999.7,N
1593549615.0,286046999.7,N
1593549615.9,286046999.7,N
1593549635.7,286047000.1,N
1593549655.6,286047000.4,N
1593549675.4,286047000.9,N
1593549695.3,286046999.9,N
1593549715.1,286047000.0,N
1593549716.0,286047000.0,N
1593549735.8,286047000.0,N
1593549755.7,286047000.7,N
1593549775.5,286046998.3,N
1593549795.4,286047000.1,N
1593549815.2,286047000.9,N
1593549835.0,286046998.1,N
1593549835.9,286046998.1,N
1593549855.8,286046999.2,N
1593549875.6,286046998.4,N
1593549895.4,286047001.2,N
1593549915.3,286047001.1,N
1593549935.1,286047000.6,N
1593549955.9,286047000.9,N
1593549975.7,286046998.1,N
1593549995.5,286047000.9,N
1593550015.4,286046998.1,N
1593550035.2,286047001.0,N
1593550055.1,286046999.3,N
1593550056.0,286046999.3,N
1593550075.8,286046998.4,N
1593550095.6,286046998.8,N
1593550115.5,286046998.7,N
1593550135.3,286046999.3,N
1593550155.2,286046998.5,N
1593550175.9,286046999.1,N
1593550195.7,286046998.1,N
1593550215.6,286047000.9,N
1593550235.4,286047000.5,N
1593550255.2,286046998.1,N
1593550275.1,286046998.8,N
1593550276.0,286046998.8,N
1593550295.8,286046998.6,N
1593550315.7,286047001.2,N
1593550335.5,286046999.0,N
1593550355.3,286047001.2,N
1593550375.2,286047000.5,N
1593550395.0,286046998.9,N
1593550395.9,286046998.9,N
1593550415.8,286047000.1,N
1593550435.6,286047000.2,N
1593550455.4,286047001.1,N
1593550475.3,286046998.6,N
1593550495.1,286046999.3,N
1593550515.8,286046998.2,N
1593550535.7,286046998.9,N
1593550555.5,286047000.8,N
1593550575.4,286047000.7,N
1593550595.2,286046998.1,N
1593550615.0,286046998.4,N
1593550615.9,286046998.4,N
1593550635.8,286046997.3,N
1593550655.6,286046997.6,N
1593550675.5,286046998.4,N
1593550695.3,286046999.6,N
1593550715.1,286046999.3,N
1593550735.9,286046998.9,N
1593550755.7,286046998.5,N
1593550775.5,286046998.6,N
1593550795.4,286046998.7,N
